This is the latest recevied weather packets stored in our database for station/object WD4DAN-13. If no packets are shown the sender has not sent any weather packets the latest 10 day(s).
| Time | Temp. | Humidity | Pressure | Rain* | Wind** | Luminosity | Snow |
|---|---|---|---|---|---|---|---|
| 1777907428 | 22.78° C | 49% | - | 0 mm | - | - | - |
| 1777907125 | 22.22° C | 47% | - | 0 mm | - | - | - |
| 1777906823 | 22.78° C | 43% | - | 0 mm | - | - | - |
| 1777906520 | 22.78° C | 49% | - | 0 mm | - | - | - |
| 1777906215 | 22.78° C | 50% | - | 0 mm | - | - | - |
| 1777905912 | 22.78° C | 54% | - | 0 mm | - | - | - |
| 1777905609 | 22.78° C | 58% | - | 0 mm | - | - | - |
| 1777905306 | 21.67° C | 62% | - | 0 mm | - | - | - |
| 1777905004 | 21.67° C | 62% | - | 0 mm | - | - | - |
| 1777904701 | 21.67° C | 64% | - | 0 mm | - | - | - |
| 1777904397 | 21.67° C | 64% | - | 0 mm | - | - | - |
| 1777904094 | 21.67° C | 63% | - | 0 mm | - | - | - |
| 1777903791 | 21.11° C | 65% | - | 0 mm | - | - | - |
| 1777903487 | 21.11° C | 63% | - | 0 mm | - | - | - |
| 1777903184 | 21.11° C | 68% | - | 0 mm | - | - | - |
| 1777902880 | 20.56° C | 70% | - | 0 mm | - | - | - |
| 1777902578 | 20.56° C | 71% | - | 0 mm | - | - | - |
| 1777902274 | 21.11° C | 71% | - | 0 mm | - | - | - |
| 1777901972 | 20° C | 72% | - | 0 mm | - | - | - |
| 1777901670 | 20.56° C | 72% | - | 0 mm | - | - | - |
| 1777901367 | 20.56° C | 71% | - | 0 mm | - | - | - |
| 1777901065 | 20.56° C | 71% | - | 0 mm | - | - | - |
| 1777900761 | 20° C | 71% | - | 0 mm | - | - | - |
| 1777900459 | 20° C | 73% | - | 0 mm | - | - | - |
| 1777900156 | 19.44° C | 74% | - | 0 mm | - | - | - |
* Rain latest hour (hover to see other rain measurements)
** Current wind speed in m/s (hover to see current wind gust speed)